If you wish to contribute or participate in the discussions about articles you are invited to join SKYbrary as a registered user

 Actions

Abadan-Ayatollah Jami International Airport

From SKYbrary Wiki

OIAA
Airport
ICAO: OIAA – IATA: ABD
Summary
Name Abadan-Ayatollah Jami International Airport
Region Middle East
Territory Iran IR.gif
Location Abadan, Khuzestan
Serving Abadan
Elevation 2.134 m
7 ft2.134 m
Coordinates 30° 21' 50.82" N, 48° 13' 36.88" E
Runways
Designator Length Width Surface ROPS
14L/32R 2267 m7,437.664 ft
35 m114.829 ft
ASP /
14R/32L 3100 m10,170.604 ft
45 m147.638 ft
ASP /


METAR
Observation OIAA 191900Z 13008KT CAVOK 29/20 Q1007
Station Abadan
Date/Time 19 May 2019 19:00:00
Wind direction 130°
Wind speed 08 kts
Lowest cloud amount clouds and visibility OK
Temperature 29°C
Dew point 20°C
Humidity 58%
QNH 1007 hPa
Weather condition n/a

Abadan International Airport is situated 12 km6.479 nm
12,000 m
39,370.079 ft
away from the city of Abadan, Iran.

Climatology

Warm desert climate (Köppen climate classification BWh).

Maps

Terrain

Loading map...

Airport Layout

Loading map...


Accidents & Serious Incidents at or in vicinity of OIAA

None on SKYbrary